Weather History for KEUG - January, 2014

Change the Weather History Date:

Monday, January 6, 2014

  Actual Average Record
Temperature  
Mean Temperature 33 °F 40 °F  
Max Temperature 41 °F 46 °F 62 °F (1962)
Min Temperature 24 °F 34 °F 12 °F (1974)
Degree Days  
Heating Degree Days 32 25  
Month to date heating degree days 175 151  
Since 1 July heating degree days 2321 2108  
Cooling Degree Days 0 0  
Month to date cooling degree days 0 0  
Year to date cooling degree days 0 0  
Moisture  
Dew Point 29 °F    
Average Humidity 90    
Maximum Humidity 100    
Minimum Humidity 79    
Precipitation  
Precipitation 0.20 in 0.23 in 3.18 in (1948)
Month to date precipitation 0.24 1.43  
Year to date precipitation 0.24 1.43  
Sea Level Pressure  
Sea Level Pressure 30.25 in    
Wind  
Wind Speed 2 mph (South)    
Max Wind Speed 8 mph    
Max Gust Speed 9 mph    
Visibility 6 miles    
Events Fog , Rain    
T = Trace of Precipitation, MM = Missing Value Source: NWS Daily Summary

Daily Weather History Graph

Daily Weather History Graph

Search for Another Location

Airport or City:

Trip Planner

Search our weather history database for the weather conditions in past years. The results will help you decide how hot, cold, wet, or windy it might be!

Date:

Astronomy

Jan. 06, 2014 Rise Set
Actual Time 7:47 AM PST 4:50 PM PST
Civil Twilight 7:15 AM PST 5:22 PM PST
Nautical Twilight 6:38 AM PST 5:59 PM PST
Astronomical Twilight 6:03 AM PST 6:34 PM PST
Moon 10:52 AM PST (1/6) 11:44 PM PST (1/6)
Length of Visible Light 10h 07m
Length of Day
9h 02m
Waxing Crescent, 36% of the Moon is Illuminated
Jan 6
Waxing Crescent
Jan 7
First Quarter
Jan 15
Full
Jan 23
Last Quarter
Jan 30
New

Hourly Weather History & Observations

Time (PST) Temp. Windchill Dew Point Humidity Pressure Visibility Wind Dir Wind Speed Gust Speed Precip Events Conditions
12:00 AM 25.0 °F - 23.0 °F 92% 30.26 in 1.8 mi Calm Calm - N/A   Partly Cloudy
12:02 AM 25.0 °F 20.7 °F 24.1 °F 96% 30.25 in 1.0 mi SE 3.5 mph - N/A   Mist
12:09 AM 24.1 °F 19.7 °F 24.1 °F 100% 30.25 in 0.5 mi SE 3.5 mph - N/A Fog Light Freezing Fog
12:19 AM 25.0 °F 19.3 °F 24.1 °F 96% 30.25 in 1.2 mi SSE 4.6 mph - N/A   Scattered Clouds
12:22 AM 25.0 °F 20.7 °F 24.1 °F 96% 30.25 in 2.0 mi SSE 3.5 mph - N/A   Scattered Clouds
12:26 AM 25.0 °F 20.7 °F 24.1 °F 96% 30.25 in 3.0 mi South 3.5 mph - N/A   Mostly Cloudy
12:33 AM 26.1 °F 21.9 °F 24.1 °F 92% 30.25 in 2.5 mi South 3.5 mph - N/A   Scattered Clouds
12:40 AM 25.0 °F 20.7 °F 24.1 °F 96% 30.25 in 4.0 mi SSW 3.5 mph - N/A   Partly Cloudy
12:54 AM 25.0 °F - 23.0 °F 92% 30.26 in 5.0 mi Calm Calm - N/A   Partly Cloudy
1:54 AM 26.1 °F - 24.1 °F 92% 30.27 in 4.0 mi Calm Calm - N/A   Clear
2:14 AM 25.0 °F 19.3 °F 23.0 °F 92% 30.26 in 5.0 mi SW 4.6 mph - N/A   Partly Cloudy
2:54 AM 25.0 °F 20.7 °F 23.0 °F 92% 30.28 in 5.0 mi SW 3.5 mph - N/A   Clear
3:54 AM 25.0 °F 20.7 °F 23.0 °F 92% 30.27 in 5.0 mi SW 3.5 mph - N/A   Clear
4:54 AM 24.1 °F 19.7 °F 21.9 °F 91% 30.26 in 4.0 mi SW 3.5 mph - N/A   Clear
5:54 AM 26.1 °F 21.9 °F 25.0 °F 96% 30.26 in 5.0 mi SSE 3.5 mph - N/A   Mostly Cloudy
6:54 AM 25.0 °F 19.3 °F 24.1 °F 96% 30.27 in 7.0 mi SSW 4.6 mph - N/A   Mostly Cloudy
7:54 AM 26.1 °F - 25.0 °F 96% 30.28 in 10.0 mi Calm Calm - N/A   Overcast
8:54 AM 27.0 °F 21.6 °F 25.0 °F 92% 30.30 in 10.0 mi SSW 4.6 mph - N/A   Mostly Cloudy
9:54 AM 30.0 °F 26.5 °F 28.9 °F 96% 30.30 in 10.0 mi SW 3.5 mph - N/A   Mostly Cloudy
10:54 AM 34.0 °F 29.8 °F 32.0 °F 92% 30.29 in 10.0 mi SSW 4.6 mph - N/A   Mostly Cloudy
11:54 AM 37.9 °F - 33.1 °F 83% 30.27 in 10.0 mi Calm Calm - N/A   Overcast
12:54 PM 39.0 °F - 33.1 °F 79% 30.24 in 10.0 mi Calm Calm - N/A   Overcast
1:54 PM 39.9 °F - 34.0 °F 79% 30.21 in 10.0 mi Calm Calm - N/A   Overcast
2:54 PM 39.9 °F - 33.1 °F 77% 30.20 in 10.0 mi Calm Calm - N/A   Overcast
3:54 PM 39.9 °F - 34.0 °F 79% 30.20 in 10.0 mi Calm Calm - N/A   Overcast
4:54 PM 39.9 °F - 35.1 °F 83% 30.20 in 10.0 mi Calm Calm - N/A   Overcast
5:54 PM 39.0 °F 35.7 °F 35.1 °F 86% 30.21 in 10.0 mi West 4.6 mph - N/A   Overcast
6:54 PM 37.9 °F 35.5 °F 36.0 °F 93% 30.23 in 6.0 mi SSE 3.5 mph - 0.02 in Rain Light Rain
7:54 PM 37.9 °F 35.5 °F 36.0 °F 93% 30.24 in 4.0 mi WSW 3.5 mph - 0.06 in Rain Rain
8:54 PM 39.0 °F 36.8 °F 37.9 °F 96% 30.24 in 7.0 mi SE 3.5 mph - 0.05 in Rain Light Rain
9:54 PM 39.9 °F 36.7 °F 39.0 °F 97% 30.22 in 4.0 mi SSE 4.6 mph - 0.03 in Rain Light Rain
10:54 PM 39.9 °F 36.7 °F 37.9 °F 93% 30.21 in 6.0 mi South 4.6 mph - 0.02 in Rain Light Rain
11:54 PM 39.9 °F 37.8 °F 39.0 °F 97% 30.19 in 5.0 mi WSW 3.5 mph - 0.02 in Rain Light Rain